ENY3548 KSGF-KORD

Flight info

Callsign ENY3548
Flight time 1h 7m
Altitude 37000
Route WELTS TRTLL6
Aircraft E35L/M-SDFGIRW/S

Departure

Time 2026-04-20 17:48
Airport Springfield Branson National Airport (KSGF)

Arrival

Time 2026-04-20 18:55
Airport Chicago O'Hare International Airport (KORD)
Time Latitude Longitude Altitude Speed Heading
2026-04-20 17:31 37.24097 -93.39672 1258 ft 0 kts 144°
2026-04-20 17:38 37.24105 -93.39680 1258 ft 2 kts 144°
2026-04-20 17:38 37.24117 -93.39690 1258 ft 2 kts 144°
2026-04-20 17:38 37.24125 -93.39698 1258 ft 2 kts 136°
2026-04-20 17:38 37.24131 -93.39714 1258 ft 2 kts 91°
2026-04-20 17:39 37.24127 -93.39732 1258 ft 2 kts 50°
2026-04-20 17:39 37.24117 -93.39741 1259 ft 1 kts 20°
2026-04-20 17:39 37.24115 -93.39741 1259 ft 0 kts 20°
2026-04-20 17:44 37.24117 -93.39741 1259 ft 1 kts 20°
2026-04-20 17:44 37.24137 -93.39732 1258 ft 6 kts 20°
2026-04-20 17:44 37.24190 -93.39677 1256 ft 12 kts 81°
2026-04-20 17:45 37.24168 -93.39572 1256 ft 12 kts 94°
2026-04-20 17:45 37.24236 -93.39510 1256 ft 17 kts 19°
2026-04-20 17:45 37.24348 -93.39413 1256 ft 20 kts 51°
2026-04-20 17:45 37.24443 -93.39283 1257 ft 18 kts 12°
2026-04-20 17:46 37.24560 -93.39366 1256 ft 21 kts 322°
2026-04-20 17:46 37.24687 -93.39490 1257 ft 24 kts 322°
2026-04-20 17:46 37.24819 -93.39621 1259 ft 23 kts 325°
2026-04-20 17:46 37.24952 -93.39748 1261 ft 24 kts 321°
2026-04-20 17:47 37.25088 -93.39885 1263 ft 25 kts 322°
2026-04-20 17:47 37.25231 -93.40025 1264 ft 25 kts 321°
2026-04-20 17:47 37.25362 -93.40161 1266 ft 18 kts 323°
2026-04-20 17:47 37.25466 -93.40113 1266 ft 18 kts 57°
2026-04-20 17:48 37.25456 -93.39984 1266 ft 19 kts 141°
2026-04-20 17:48 37.25217 -93.39749 1261 ft 84 kts 143°
2026-04-20 17:48 37.24544 -93.39082 1401 ft 149 kts 146°
2026-04-20 17:48 37.23748 -93.38212 2249 ft 159 kts 141°
2026-04-20 17:49 37.22967 -93.37186 2972 ft 174 kts 140°
2026-04-20 17:49 37.22109 -93.35977 3637 ft 197 kts 130°
2026-04-20 17:49 37.21754 -93.34212 4208 ft 232 kts 91°
2026-04-20 17:49 37.21821 -93.32072 4860 ft 256 kts 91°
2026-04-20 17:50 37.21885 -93.29714 5518 ft 280 kts 91°
2026-04-20 17:50 37.22035 -93.27206 6283 ft 297 kts 76°
2026-04-20 17:50 37.23089 -93.24950 7294 ft 296 kts 38°
2026-04-20 17:50 37.24739 -93.23529 8382 ft 290 kts 26°
2026-04-20 17:51 37.26462 -93.22154 9326 ft 294 kts 25°
2026-04-20 17:51 37.28224 -93.20740 10278 ft 297 kts 25°
2026-04-20 17:51 37.29984 -93.19325 11047 ft 305 kts 24°
2026-04-20 17:51 37.31825 -93.17844 11582 ft 320 kts 24°
2026-04-20 17:52 37.33735 -93.16299 12178 ft 331 kts 24°
2026-04-20 17:52 37.35842 -93.14593 12915 ft 338 kts 24°
2026-04-20 17:52 37.37951 -93.12881 13725 ft 340 kts 24°
2026-04-20 17:52 37.39960 -93.11249 14438 ft 343 kts 24°
2026-04-20 17:53 37.41985 -93.09605 15077 ft 348 kts 24°
2026-04-20 17:53 37.44049 -93.07928 15697 ft 352 kts 24°
2026-04-20 17:53 37.46110 -93.06253 16301 ft 356 kts 24°
2026-04-20 17:53 37.48241 -93.04519 16887 ft 360 kts 24°
2026-04-20 17:54 37.50335 -93.02814 17447 ft 363 kts 24°
2026-04-20 17:54 37.52496 -93.01053 17988 ft 367 kts 24°
2026-04-20 17:54 37.54661 -92.99287 18525 ft 370 kts 24°
2026-04-20 17:54 37.56804 -92.97536 19219 ft 367 kts 23°
2026-04-20 17:55 37.58968 -92.95767 19888 ft 365 kts 23°
2026-04-20 17:55 37.61094 -92.94031 20474 ft 365 kts 23°
2026-04-20 17:55 37.63228 -92.92287 21043 ft 365 kts 23°
2026-04-20 17:55 37.65360 -92.90543 21605 ft 365 kts 23°
2026-04-20 17:56 37.67508 -92.88784 22163 ft 365 kts 22°
2026-04-20 17:56 37.69653 -92.87026 22715 ft 364 kts 22°
2026-04-20 17:56 37.71781 -92.85280 23269 ft 363 kts 22°
2026-04-20 17:56 37.73909 -92.83534 23809 ft 362 kts 22°
2026-04-20 17:57 37.76031 -92.81790 24332 ft 361 kts 22°
2026-04-20 17:57 37.78138 -92.80060 24841 ft 360 kts 22°
2026-04-20 17:57 37.80261 -92.78313 25346 ft 359 kts 21°
2026-04-20 17:57 37.82335 -92.76608 25827 ft 358 kts 21°
2026-04-20 17:58 37.84434 -92.74878 26302 ft 357 kts 21°
2026-04-20 17:58 37.86532 -92.73151 26763 ft 356 kts 21°
2026-04-20 17:58 37.88613 -92.71434 27211 ft 355 kts 21°
2026-04-20 17:58 37.90671 -92.69736 27652 ft 354 kts 21°
2026-04-20 17:59 37.92749 -92.68021 28083 ft 353 kts 20°
2026-04-20 17:59 37.94879 -92.66260 28510 ft 352 kts 20°
2026-04-20 17:59 37.96947 -92.64551 28917 ft 351 kts 20°
2026-04-20 17:59 37.98999 -92.62853 29315 ft 350 kts 20°
2026-04-20 18:00 38.01036 -92.61166 29697 ft 349 kts 20°
2026-04-20 18:00 38.03087 -92.59467 30075 ft 348 kts 20°
2026-04-20 18:00 38.05141 -92.57764 30447 ft 347 kts 20°
2026-04-20 18:00 38.07173 -92.56078 30805 ft 346 kts 19°
2026-04-20 18:01 38.09198 -92.54398 31148 ft 346 kts 19°
2026-04-20 18:01 38.11218 -92.52719 31493 ft 345 kts 19°
2026-04-20 18:01 38.13239 -92.51039 31832 ft 344 kts 19°
2026-04-20 18:01 38.15276 -92.49345 32166 ft 343 kts 19°
2026-04-20 18:02 38.17324 -92.47640 32494 ft 342 kts 19°
2026-04-20 18:02 38.19320 -92.45978 32807 ft 341 kts 19°
2026-04-20 18:02 38.21316 -92.44314 33112 ft 341 kts 19°
2026-04-20 18:02 38.23323 -92.42639 33416 ft 340 kts 19°
2026-04-20 18:03 38.25308 -92.40984 33704 ft 339 kts 18°
2026-04-20 18:03 38.27264 -92.39350 33981 ft 338 kts 18°
2026-04-20 18:03 38.29245 -92.37695 34255 ft 338 kts 18°
2026-04-20 18:03 38.31314 -92.35966 34527 ft 337 kts 18°
2026-04-20 18:04 38.33331 -92.34277 34772 ft 337 kts 19°
2026-04-20 18:04 38.35282 -92.32645 34962 ft 338 kts 19°
2026-04-20 18:04 38.37265 -92.30981 35172 ft 338 kts 19°
2026-04-20 18:04 38.39241 -92.29325 35388 ft 337 kts 19°
2026-04-20 18:05 38.43177 -92.26022 35760 ft 337 kts 19°
2026-04-20 18:05 38.45210 -92.24315 35883 ft 340 kts 19°
2026-04-20 18:05 38.47225 -92.22621 36008 ft 342 kts 19°
2026-04-20 18:06 38.49272 -92.20898 36134 ft 344 kts 19°
2026-04-20 18:06 38.51300 -92.19191 36257 ft 346 kts 19°
2026-04-20 18:06 38.53340 -92.17472 36382 ft 347 kts 19°
2026-04-20 18:06 38.55368 -92.15762 36504 ft 349 kts 19°
2026-04-20 18:07 38.57435 -92.14018 36628 ft 351 kts 19°
2026-04-20 18:07 38.59512 -92.12264 36752 ft 352 kts 19°
2026-04-20 18:07 38.61605 -92.10496 36877 ft 353 kts 19°
2026-04-20 18:07 38.63715 -92.08711 37002 ft 354 kts 20°
2026-04-20 18:08 38.65812 -92.06937 37127 ft 355 kts 20°
2026-04-20 18:08 38.67890 -92.05177 37250 ft 356 kts 20°
2026-04-20 18:08 38.72142 -92.01576 37331 ft 363 kts 20°
2026-04-20 18:09 38.76501 -91.97876 37336 ft 372 kts 20°
2026-04-20 18:09 38.80954 -91.94091 37341 ft 381 kts 20°
2026-04-20 18:10 38.85496 -91.90222 37347 ft 390 kts 21°
2026-04-20 18:10 38.90131 -91.86268 37349 ft 398 kts 21°
2026-04-20 18:11 38.94862 -91.82225 37350 ft 405 kts 21°
2026-04-20 18:11 38.99662 -91.78104 37347 ft 417 kts 24°
2026-04-20 18:12 39.01800 -91.75402 37377 ft 441 kts 39°
2026-04-20 18:12 39.03892 -91.72222 37357 ft 451 kts 40°
2026-04-20 18:12 39.08050 -91.65768 37360 ft 466 kts 40°
2026-04-20 18:13 39.12233 -91.59252 37362 ft 480 kts 41°
2026-04-20 18:13 39.16518 -91.52554 37357 ft 481 kts 41°
2026-04-20 18:14 39.20777 -91.45891 37358 ft 480 kts 41°
2026-04-20 18:14 39.25039 -91.39207 37362 ft 480 kts 41°
2026-04-20 18:15 39.29304 -91.32505 37353 ft 480 kts 41°
2026-04-20 18:15 39.33551 -91.25817 37359 ft 478 kts 41°
2026-04-20 18:16 39.37783 -91.19139 37367 ft 477 kts 41°
2026-04-20 18:16 39.42024 -91.12434 37367 ft 476 kts 42°
2026-04-20 18:17 39.46261 -91.05715 37367 ft 476 kts 42°
2026-04-20 18:17 39.50523 -90.98947 37372 ft 475 kts 42°
2026-04-20 18:18 39.54782 -90.92168 37374 ft 475 kts 42°
2026-04-20 18:18 39.59002 -90.85435 37376 ft 475 kts 42°
2026-04-20 18:19 39.63207 -90.78709 37379 ft 475 kts 42°
2026-04-20 18:19 39.67441 -90.71922 37379 ft 475 kts 42°
2026-04-20 18:20 39.71694 -90.65095 37385 ft 482 kts 42°
2026-04-20 18:20 39.76072 -90.58047 37386 ft 495 kts 42°
2026-04-20 18:21 39.80567 -90.50788 37384 ft 497 kts 43°
2026-04-20 18:21 39.84924 -90.43744 37384 ft 497 kts 43°
2026-04-20 18:22 39.89294 -90.36664 37385 ft 497 kts 43°
2026-04-20 18:22 39.93619 -90.29642 37369 ft 499 kts 43°
2026-04-20 18:23 39.98325 -90.23108 37380 ft 481 kts 29°
2026-04-20 18:23 40.03486 -90.17423 37371 ft 485 kts 31°
2026-04-20 18:24 40.08604 -90.11676 37370 ft 483 kts 31°
2026-04-20 18:24 40.13810 -90.05815 37379 ft 484 kts 31°
2026-04-20 18:25 40.19015 -89.99943 37384 ft 485 kts 31°
2026-04-20 18:25 40.24145 -89.94137 37384 ft 485 kts 31°
2026-04-20 18:26 40.29297 -89.88293 37358 ft 478 kts 31°
2026-04-20 18:26 40.34408 -89.82495 37365 ft 481 kts 31°
2026-04-20 18:27 40.39542 -89.76653 37361 ft 480 kts 31°
2026-04-20 18:27 40.44288 -89.71241 37362 ft 482 kts 31°
2026-04-20 18:28 40.49691 -89.65067 37362 ft 482 kts 31°
2026-04-20 18:28 40.54897 -89.59103 37366 ft 480 kts 31°
2026-04-20 18:29 40.60112 -89.53120 37361 ft 481 kts 31°
2026-04-20 18:29 40.65439 -89.46991 37368 ft 480 kts 31°
2026-04-20 18:30 40.70937 -89.40656 37370 ft 482 kts 31°
2026-04-20 18:30 40.76197 -89.34494 37372 ft 483 kts 32°
2026-04-20 18:31 40.78706 -89.31513 36878 ft 488 kts 33°
2026-04-20 18:31 40.81244 -89.28481 36104 ft 485 kts 33°
2026-04-20 18:31 40.83730 -89.25513 35340 ft 476 kts 32°
2026-04-20 18:31 40.86199 -89.22567 34563 ft 469 kts 32°
2026-04-20 18:32 40.88609 -89.19684 33797 ft 461 kts 32°
2026-04-20 18:32 40.91013 -89.16811 33021 ft 455 kts 32°
2026-04-20 18:32 40.93380 -89.13983 32252 ft 452 kts 32°
2026-04-20 18:32 40.95690 -89.11209 31496 ft 446 kts 32°
2026-04-20 18:33 40.98048 -89.08385 30711 ft 441 kts 33°
2026-04-20 18:33 41.00498 -89.05440 29894 ft 436 kts 33°
2026-04-20 18:33 41.02758 -89.02725 29127 ft 432 kts 33°
2026-04-20 18:33 41.05010 -89.00017 28361 ft 429 kts 34°
2026-04-20 18:34 41.07211 -88.97366 27609 ft 426 kts 34°
2026-04-20 18:34 41.09450 -88.94668 26841 ft 423 kts 35°
2026-04-20 18:34 41.11652 -88.92014 26077 ft 421 kts 36°
2026-04-20 18:34 41.13837 -88.89370 25312 ft 417 kts 36°
2026-04-20 18:35 41.16022 -88.86727 24538 ft 413 kts 37°
2026-04-20 18:35 41.18221 -88.84062 23752 ft 408 kts 37°
2026-04-20 18:35 41.20460 -88.81351 22941 ft 403 kts 38°
2026-04-20 18:35 41.22635 -88.78714 22145 ft 398 kts 38°
2026-04-20 18:36 41.24805 -88.76078 21341 ft 393 kts 39°
2026-04-20 18:36 41.26934 -88.73490 20541 ft 387 kts 39°
2026-04-20 18:36 41.28997 -88.70982 19756 ft 382 kts 39°
2026-04-20 18:36 41.31000 -88.68546 18984 ft 377 kts 39°
2026-04-20 18:37 41.32966 -88.66155 18216 ft 372 kts 40°
2026-04-20 18:37 41.34910 -88.63783 17446 ft 367 kts 40°
2026-04-20 18:37 41.36808 -88.61469 16684 ft 362 kts 40°
2026-04-20 18:37 41.38695 -88.59225 15925 ft 357 kts 39°
2026-04-20 18:38 41.40549 -88.57024 15172 ft 353 kts 40°
2026-04-20 18:38 41.42375 -88.54856 14421 ft 349 kts 40°
2026-04-20 18:38 41.44186 -88.52705 13668 ft 345 kts 40°
2026-04-20 18:38 41.45966 -88.50588 12920 ft 341 kts 40°
2026-04-20 18:39 41.47737 -88.48480 12166 ft 337 kts 40°
2026-04-20 18:39 41.49482 -88.46406 11416 ft 333 kts 41°
2026-04-20 18:39 41.51178 -88.44386 11028 ft 321 kts 41°
2026-04-20 18:39 41.52829 -88.42410 11007 ft 321 kts 41°
2026-04-20 18:40 41.54516 -88.40397 11007 ft 324 kts 41°
2026-04-20 18:40 41.56192 -88.38393 11007 ft 325 kts 41°
2026-04-20 18:40 41.57857 -88.36403 11008 ft 325 kts 41°
2026-04-20 18:40 41.59568 -88.34360 11007 ft 325 kts 42°
2026-04-20 18:41 41.61254 -88.32342 11007 ft 325 kts 42°
2026-04-20 18:41 41.62968 -88.30299 11007 ft 336 kts 42°
2026-04-20 18:41 41.64759 -88.28175 11016 ft 349 kts 42°
2026-04-20 18:41 41.66591 -88.25990 11006 ft 349 kts 42°
2026-04-20 18:42 41.68420 -88.23814 11005 ft 348 kts 42°
2026-04-20 18:42 41.70257 -88.21627 11006 ft 348 kts 42°
2026-04-20 18:42 41.72098 -88.19430 11007 ft 347 kts 42°
2026-04-20 18:42 41.73898 -88.17282 11008 ft 347 kts 42°
2026-04-20 18:43 41.75149 -88.15788 11009 ft 347 kts 42°
2026-04-20 18:43 41.78785 -88.11442 11011 ft 347 kts 42°
2026-04-20 18:43 41.80590 -88.09263 11010 ft 347 kts 44°
2026-04-20 18:44 41.82313 -88.06992 11005 ft 341 kts 45°
2026-04-20 18:44 41.83993 -88.04771 10505 ft 327 kts 45°
2026-04-20 18:44 41.85605 -88.02637 9991 ft 316 kts 46°
2026-04-20 18:44 41.87141 -88.00590 9485 ft 306 kts 48°
2026-04-20 18:45 41.88154 -87.98210 8967 ft 289 kts 81°
2026-04-20 18:45 41.88345 -87.95544 8491 ft 279 kts 93°
2026-04-20 18:45 41.88401 -87.92953 7991 ft 274 kts 95°
2026-04-20 18:45 41.88423 -87.90386 7490 ft 271 kts 95°
2026-04-20 18:46 41.88429 -87.87811 6984 ft 271 kts 95°
2026-04-20 18:46 41.88431 -87.86845 6795 ft 269 kts 95°
2026-04-20 18:46 41.88426 -87.81785 5800 ft 270 kts 93°
2026-04-20 18:47 41.88421 -87.78361 5106 ft 264 kts 91°
2026-04-20 18:47 41.88417 -87.75913 4603 ft 260 kts 90°
2026-04-20 18:47 41.88415 -87.73508 4122 ft 255 kts 90°
2026-04-20 18:47 41.88417 -87.71208 4006 ft 236 kts 89°
2026-04-20 18:48 41.88414 -87.69037 4000 ft 229 kts 89°
2026-04-20 18:48 41.88408 -87.66843 4007 ft 229 kts 88°
2026-04-20 18:48 41.88407 -87.64667 4008 ft 230 kts 88°
2026-04-20 18:48 41.88685 -87.62579 4035 ft 212 kts 57°
2026-04-20 18:49 41.89761 -87.61414 3993 ft 181 kts 12°
2026-04-20 18:49 41.90989 -87.61636 4012 ft 175 kts 332°
2026-04-20 18:49 41.92117 -87.62381 4014 ft 177 kts 333°
2026-04-20 18:49 41.93233 -87.63094 4009 ft 178 kts 332°
2026-04-20 18:50 41.94367 -87.63815 4008 ft 179 kts 332°
2026-04-20 18:50 41.95491 -87.64531 4008 ft 180 kts 330°
2026-04-20 18:50 41.96352 -87.65678 3804 ft 178 kts 292°
2026-04-20 18:50 41.96516 -87.67298 3628 ft 175 kts 271°
2026-04-20 18:51 41.96550 -87.68941 3509 ft 175 kts 270°
2026-04-20 18:51 41.96562 -87.70602 3323 ft 175 kts 270°
2026-04-20 18:51 41.96569 -87.72139 3145 ft 160 kts 269°
2026-04-20 18:51 41.96574 -87.73520 2953 ft 138 kts 268°
2026-04-20 18:52 41.96575 -87.74802 2767 ft 137 kts 268°
2026-04-20 18:52 41.96578 -87.76025 2607 ft 120 kts 268°
2026-04-20 18:52 41.96579 -87.77133 2427 ft 118 kts 267°
2026-04-20 18:52 41.96575 -87.78246 2271 ft 118 kts 267°
2026-04-20 18:53 41.96576 -87.79353 2111 ft 119 kts 268°
2026-04-20 18:53 41.96587 -87.80478 1949 ft 122 kts 267°
2026-04-20 18:53 41.96601 -87.81606 1802 ft 119 kts 268°
2026-04-20 18:53 41.96586 -87.82722 1639 ft 119 kts 265°
2026-04-20 18:54 41.96578 -87.83842 1481 ft 119 kts 268°
2026-04-20 18:54 41.96582 -87.84965 1301 ft 124 kts 266°
2026-04-20 18:54 41.96585 -87.86104 1133 ft 120 kts 266°
2026-04-20 18:54 41.96587 -87.87250 973 ft 122 kts 266°
2026-04-20 18:55 41.96587 -87.88400 806 ft 123 kts 266°
2026-04-20 18:55 41.96577 -87.89529 658 ft 113 kts 266°
2026-04-20 18:55 41.96574 -87.90440 661 ft 77 kts 268°
2026-04-20 18:55 41.96572 -87.90991 664 ft 46 kts 269°
2026-04-20 18:56 41.96601 -87.91337 666 ft 35 kts 290°
2026-04-20 18:56 41.96687 -87.91538 668 ft 22 kts 303°
2026-04-20 18:56 41.96733 -87.91747 667 ft 24 kts 271°
2026-04-20 18:56 41.96732 -87.91980 667 ft 25 kts 269°
2026-04-20 18:57 41.96816 -87.92084 669 ft 18 kts 360°
2026-04-20 18:57 41.96949 -87.92085 669 ft 19 kts
2026-04-20 18:57 41.97034 -87.92049 669 ft 10 kts 82°
2026-04-20 18:57 41.97035 -87.91927 667 ft 16 kts 91°
2026-04-20 18:58 41.97034 -87.91755 666 ft 19 kts 89°
2026-04-20 18:58 41.97037 -87.91557 666 ft 23 kts 91°
2026-04-20 18:58 41.97036 -87.91319 666 ft 26 kts 90°
2026-04-20 18:58 41.97038 -87.91067 666 ft 27 kts 91°
2026-04-20 18:59 41.97038 -87.90833 666 ft 28 kts 89°
2026-04-20 18:59 41.97039 -87.90550 663 ft 29 kts 91°
2026-04-20 18:59 41.97039 -87.90267 661 ft 31 kts 88°
2026-04-20 18:59 41.97040 -87.89964 657 ft 33 kts 89°
2026-04-20 19:00 41.97040 -87.89664 652 ft 30 kts 89°
2026-04-20 19:00 41.97050 -87.89464 652 ft 15 kts 42°
2026-04-20 19:00 41.97155 -87.89442 652 ft 15 kts
2026-04-20 19:00 41.97269 -87.89436 653 ft 17 kts 360°
2026-04-20 19:01 41.97391 -87.89437 652 ft 18 kts 359°
2026-04-20 19:01 41.97525 -87.89438 651 ft 20 kts 360°
2026-04-20 19:01 41.97668 -87.89437 651 ft 21 kts
2026-04-20 19:01 41.97763 -87.89473 652 ft 12 kts 282°
2026-04-20 19:02 41.97783 -87.89588 652 ft 13 kts 279°
2026-04-20 19:02 41.97785 -87.89699 653 ft 5 kts 261°
2026-04-20 19:02 41.97758 -87.89715 653 ft 5 kts 178°
2026-04-20 19:02 41.97730 -87.89715 653 ft 0 kts 180°